Time,TemperatureF,DewpointF,PressureIn,WindDirection,WindDirectionDegrees,WindSpeedMPH,WindSpeedGustMPH,Humidity,HourlyPrecipIn,Conditions,Clouds,dailyrainin,SoftwareType,DateUTC
2013-06-22 00:01:00,67.2,64.8,30.08,SW,223,3.0,4.0,92,0.01,,---,0.00,VWS V14.01,2013-06-22 04:01:00,
2013-06-22 00:16:00,67.2,64.8,30.08,SW,223,3.0,4.0,92,0.00,,---,0.00,VWS V14.01,2013-06-22 04:16:00,
2013-06-22 00:31:00,67.3,64.9,30.07,SW,223,1.0,4.0,92,0.01,,---,0.01,VWS V14.01,2013-06-22 04:31:00,
2013-06-22 00:46:00,67.3,64.6,30.07,SW,223,2.0,4.0,91,0.01,,---,0.01,VWS V14.01,2013-06-22 04:46:00,
2013-06-22 01:01:00,67.5,64.8,30.06,SSW,209,2.0,6.0,91,0.01,,---,0.01,VWS V14.01,2013-06-22 05:01:00,
2013-06-22 01:16:00,67.6,64.9,30.06,South,178,1.0,6.0,91,0.01,,---,0.01,VWS V14.01,2013-06-22 05:16:00,
2013-06-22 01:31:00,67.9,64.9,30.05,South,177,2.0,7.0,90,0.01,,---,0.01,VWS V14.01,2013-06-22 05:31:00,
2013-06-22 01:46:00,67.9,64.5,30.05,South,177,3.0,7.0,89,0.00,,---,0.01,VWS V14.01,2013-06-22 05:46:00,
2013-06-22 02:01:00,67.8,64.4,30.04,South,184,1.0,9.0,89,0.00,,---,0.01,VWS V14.01,2013-06-22 06:01:00,
2013-06-22 02:16:00,67.9,64.5,30.04,SSW,192,2.0,7.0,89,0.00,,---,0.01,VWS V14.01,2013-06-22 06:16:00,
2013-06-22 02:31:00,68.0,64.6,30.03,SSW,192,2.0,6.0,89,0.00,,---,0.01,VWS V14.01,2013-06-22 06:31:00,
2013-06-22 02:46:00,67.8,64.4,30.02,South,191,1.0,7.0,89,0.00,,---,0.01,VWS V14.01,2013-06-22 06:46:00,
2013-06-22 03:01:00,67.8,64.1,30.02,South,182,5.0,8.0,88,0.00,,---,0.01,VWS V14.01,2013-06-22 07:01:00,
2013-06-22 03:16:00,67.6,63.9,30.01,SSW,196,0.0,6.0,88,0.00,,---,0.01,VWS V14.01,2013-06-22 07:16:00,
2013-06-22 03:31:00,67.5,63.8,30.01,South,177,3.0,6.0,88,0.00,,---,0.01,VWS V14.01,2013-06-22 07:31:00,
2013-06-22 03:46:00,67.5,63.8,30.01,South,189,2.0,7.0,88,0.00,,---,0.01,VWS V14.01,2013-06-22 07:46:00,
2013-06-22 04:01:00,67.2,63.8,30.01,South,189,2.0,5.0,89,0.00,,---,0.01,VWS V14.01,2013-06-22 08:01:00,
2013-06-22 04:16:00,67.1,63.8,30.01,South,189,2.0,6.0,89,0.00,,---,0.01,VWS V14.01,2013-06-22 08:16:00,
2013-06-22 04:31:00,67.1,63.8,30.00,South,189,3.0,6.0,89,0.00,,---,0.01,VWS V14.01,2013-06-22 08:31:00,
2013-06-22 04:46:00,67.5,64.2,30.00,SSW,198,1.0,7.0,89,0.00,,---,0.01,VWS V14.01,2013-06-22 08:46:00,
2013-06-22 05:01:00,68.0,64.6,30.01,SW,217,4.0,7.0,89,0.00,,---,0.01,VWS V14.01,2013-06-22 09:01:00,
2013-06-22 05:16:00,68.6,64.9,30.02,SW,215,1.0,8.0,88,0.00,,---,0.01,VWS V14.01,2013-06-22 09:16:00,
2013-06-22 05:31:00,68.9,65.2,30.01,SW,232,3.0,8.0,88,0.01,,---,0.02,VWS V14.01,2013-06-22 09:31:00,
2013-06-22 05:46:00,68.8,65.4,30.02,SW,219,4.0,6.0,89,0.01,,---,0.02,VWS V14.01,2013-06-22 09:46:00,
2013-06-22 06:01:00,68.7,65.3,30.02,SW,234,2.0,10.0,89,0.01,,---,0.02,VWS V14.01,2013-06-22 10:01:00,
2013-06-22 06:16:00,68.7,65.3,30.02,West,271,5.0,8.0,89,0.01,,---,0.02,VWS V14.01,2013-06-22 10:16:00,
2013-06-22 06:31:00,68.1,65.4,30.03,WNW,297,2.0,9.0,91,0.01,,---,0.02,VWS V14.01,2013-06-22 10:31:00,
2013-06-22 06:46:00,68.0,65.3,30.03,South,182,3.0,7.0,91,0.00,,---,0.02,VWS V14.01,2013-06-22 10:46:00,
2013-06-22 07:01:00,68.3,65.6,30.05,West,279,6.0,8.0,91,0.00,,---,0.02,VWS V14.01,2013-06-22 11:01:00,
2013-06-22 07:16:00,68.4,65.7,30.05,WSW,250,0.0,7.0,91,0.00,,---,0.02,VWS V14.01,2013-06-22 11:16:00,
2013-06-22 07:31:00,68.4,65.7,30.05,WSW,250,0.0,2.0,91,0.00,,---,0.02,VWS V14.01,2013-06-22 11:31:00,
2013-06-22 07:46:00,68.7,66.0,30.06,WNW,287,2.0,3.0,91,0.00,,---,0.02,VWS V14.01,2013-06-22 11:46:00,
2013-06-22 08:01:00,68.9,66.2,30.05,SW,219,3.0,6.0,91,0.00,,---,0.02,VWS V14.01,2013-06-22 12:01:00,
2013-06-22 08:16:00,69.1,66.4,30.04,South,188,8.0,9.0,91,0.00,,---,0.02,VWS V14.01,2013-06-22 12:16:00,
2013-06-22 08:31:00,69.6,66.9,30.05,South,191,2.0,10.0,91,0.00,,---,0.02,VWS V14.01,2013-06-22 12:31:00,
2013-06-22 08:46:00,70.3,67.2,30.06,WSW,252,5.0,7.0,90,0.00,,---,0.02,VWS V14.01,2013-06-22 12:46:00,
2013-06-22 09:01:00,71.2,67.8,30.07,WSW,250,6.0,7.0,89,0.00,,---,0.02,VWS V14.01,2013-06-22 13:01:00,
2013-06-22 09:16:00,71.6,67.9,30.07,SW,234,4.0,8.0,88,0.01,,---,0.03,VWS V14.01,2013-06-22 13:16:00,
2013-06-22 09:31:00,71.8,68.4,30.07,WSW,248,6.0,8.0,89,0.01,,---,0.03,VWS V14.01,2013-06-22 13:31:00,
2013-06-22 09:46:00,72.5,68.8,30.08,SW,230,6.0,10.0,88,0.01,,---,0.03,VWS V14.01,2013-06-22 13:46:00,
2013-06-22 10:01:00,73.4,69.3,30.07,WSW,257,4.0,9.0,87,0.01,,---,0.03,VWS V14.01,2013-06-22 14:01:00,
2013-06-22 10:16:00,74.4,69.9,30.06,WSW,257,6.0,8.0,86,0.01,,---,0.03,VWS V14.01,2013-06-22 14:16:00,
2013-06-22 10:31:00,75.2,70.4,30.06,WSW,245,2.0,7.0,85,0.00,,---,0.03,VWS V14.01,2013-06-22 14:31:00,
2013-06-22 10:46:00,75.4,70.6,30.06,WSW,246,5.0,7.0,85,0.00,,---,0.03,VWS V14.01,2013-06-22 14:46:00,
2013-06-22 11:01:00,75.6,70.1,30.06,WSW,238,6.0,8.0,83,0.00,,---,0.03,VWS V14.01,2013-06-22 15:01:00,
2013-06-22 11:16:00,75.8,69.9,30.05,West,281,4.0,6.0,82,0.00,,---,0.03,VWS V14.01,2013-06-22 15:16:00,
2013-06-22 11:31:00,76.1,71.3,30.05,South,171,0.0,5.0,85,0.00,,---,0.03,VWS V14.01,2013-06-22 15:31:00,
2013-06-22 11:46:00,76.2,71.4,30.06,SSE,159,3.0,7.0,85,0.00,,---,0.03,VWS V14.01,2013-06-22 15:46:00,
2013-06-22 12:01:00,76.3,71.5,30.07,South,188,0.0,7.0,85,0.00,,---,0.03,VWS V14.01,2013-06-22 16:01:00,
2013-06-22 12:16:00,76.8,71.6,30.07,SW,225,3.0,8.0,84,0.00,,---,0.03,VWS V14.01,2013-06-22 16:16:00,
2013-06-22 12:31:00,77.0,71.8,30.07,WSW,237,3.0,11.0,84,0.00,,---,0.03,VWS V14.01,2013-06-22 16:31:00,
2013-06-22 12:46:00,77.4,71.5,30.06,WSW,244,0.0,7.0,82,0.00,,---,0.03,VWS V14.01,2013-06-22 16:46:00,
2013-06-22 13:01:00,77.6,71.3,30.06,South,181,1.0,8.0,81,0.00,,---,0.03,VWS V14.01,2013-06-22 17:01:00,
2013-06-22 13:16:00,77.9,71.6,30.07,SSW,209,3.0,8.0,81,0.00,,---,0.03,VWS V14.01,2013-06-22 17:16:00,
2013-06-22 13:31:00,78.5,71.1,30.07,SSW,208,2.0,7.0,78,0.00,,---,0.03,VWS V14.01,2013-06-22 17:31:00,
2013-06-22 13:46:00,78.6,71.6,30.07,SW,236,4.0,9.0,79,0.00,,---,0.03,VWS V14.01,2013-06-22 17:46:00,
2013-06-22 14:01:00,78.8,71.7,30.07,West,274,1.0,7.0,79,0.01,,---,0.04,VWS V14.01,2013-06-22 18:01:00,
2013-06-22 14:16:00,78.8,72.1,30.07,West,279,5.0,9.0,80,0.01,,---,0.04,VWS V14.01,2013-06-22 18:16:00,
2013-06-22 14:31:00,79.8,71.9,30.06,West,267,2.0,6.0,77,0.01,,---,0.04,VWS V14.01,2013-06-22 18:31:00,
2013-06-22 14:46:00,80.0,71.8,30.05,WSW,238,2.0,5.0,76,0.01,,---,0.04,VWS V14.01,2013-06-22 18:46:00,
2013-06-22 15:01:00,79.8,72.3,30.05,West,263,6.0,8.0,78,0.01,,---,0.04,VWS V14.01,2013-06-22 19:01:00,
2013-06-22 15:16:00,80.1,73.0,30.04,SSE,166,2.0,7.0,79,0.00,,---,0.04,VWS V14.01,2013-06-22 19:16:00,
2013-06-22 15:31:00,80.8,72.5,30.03,WSW,250,6.0,8.0,76,0.00,,---,0.04,VWS V14.01,2013-06-22 19:31:00,
2013-06-22 15:46:00,81.5,74.0,30.02,West,268,1.0,9.0,78,0.00,,---,0.04,VWS V14.01,2013-06-22 19:46:00,
2013-06-22 16:01:00,81.9,72.8,30.01,WSW,258,4.0,9.0,74,0.00,,---,0.04,VWS V14.01,2013-06-22 20:01:00,
2013-06-22 16:16:00,80.8,72.5,30.00,SW,225,5.0,7.0,76,0.00,,---,0.04,VWS V14.01,2013-06-22 20:16:00,
2013-06-22 16:31:00,80.7,72.8,29.99,North,355,2.0,5.0,77,0.00,,---,0.04,VWS V14.01,2013-06-22 20:31:00,
2013-06-22 16:46:00,80.3,72.4,29.98,West,262,0.0,5.0,77,0.00,,---,0.04,VWS V14.01,2013-06-22 20:46:00,
2013-06-22 17:01:00,80.3,72.4,29.98,South,184,2.0,6.0,77,0.00,,---,0.04,VWS V14.01,2013-06-22 21:01:00,
2013-06-22 17:16:00,80.1,72.6,29.97,South,186,1.0,7.0,78,0.00,,---,0.04,VWS V14.01,2013-06-22 21:16:00,
2013-06-22 17:31:00,79.6,71.8,29.97,South,187,1.0,7.0,77,0.01,,---,0.05,VWS V14.01,2013-06-22 21:31:00,
2013-06-22 17:46:00,79.4,71.9,29.98,South,182,3.0,6.0,78,0.01,,---,0.05,VWS V14.01,2013-06-22 21:46:00,
2013-06-22 18:01:00,79.7,72.2,29.98,South,180,0.0,5.0,78,0.01,,---,0.05,VWS V14.01,2013-06-22 22:01:00,
2013-06-22 18:16:00,79.8,72.3,29.98,SSE,165,4.0,5.0,78,0.01,,---,0.05,VWS V14.01,2013-06-22 22:16:00,
2013-06-22 18:31:00,79.5,72.8,29.98,South,180,4.0,6.0,80,0.01,,---,0.05,VWS V14.01,2013-06-22 22:31:00,
2013-06-22 18:46:00,79.5,72.8,29.99,SSE,161,3.0,6.0,80,0.00,,---,0.05,VWS V14.01,2013-06-22 22:46:00,
2013-06-22 19:01:00,79.5,72.8,29.99,South,190,0.0,5.0,80,0.00,,---,0.05,VWS V14.01,2013-06-22 23:01:00,
2013-06-22 19:16:00,79.4,72.7,29.99,ESE,121,2.0,6.0,80,0.00,,---,0.05,VWS V14.01,2013-06-22 23:16:00,
2013-06-22 19:31:00,79.2,72.9,29.99,SSE,147,1.0,6.0,81,0.00,,---,0.05,VWS V14.01,2013-06-22 23:31:00,
2013-06-22 19:46:00,79.0,73.0,29.98,SE,135,1.0,5.0,82,0.00,,---,0.05,VWS V14.01,2013-06-22 23:46:00,
2013-06-22 20:01:00,78.8,73.2,29.98,SSE,163,2.0,8.0,83,0.00,,---,0.05,VWS V14.01,2013-06-23 00:01:00,
2013-06-22 20:16:00,78.7,73.5,29.98,South,189,1.0,6.0,84,0.00,,---,0.05,VWS V14.01,2013-06-23 00:16:00,
2013-06-22 20:31:00,78.7,73.5,29.99,ESE,122,2.0,6.0,84,0.00,,---,0.05,VWS V14.01,2013-06-23 00:31:00,
2013-06-22 20:46:00,78.3,72.4,30.00,South,187,4.0,6.0,82,0.00,,---,0.05,VWS V14.01,2013-06-23 00:46:00,
2013-06-22 21:01:00,77.9,71.6,30.00,SSW,194,4.0,7.0,81,0.00,,---,0.05,VWS V14.01,2013-06-23 01:01:00,
2013-06-22 21:16:00,77.5,71.2,30.01,SSW,196,3.0,6.0,81,0.00,,---,0.05,VWS V14.01,2013-06-23 01:16:00,
2013-06-22 21:31:00,76.9,70.6,30.01,South,186,1.0,6.0,81,0.00,,---,0.05,VWS V14.01,2013-06-23 01:31:00,
2013-06-22 21:46:00,76.4,69.8,30.01,SW,227,3.0,7.0,80,0.00,,---,0.05,VWS V14.01,2013-06-23 01:46:00,
2013-06-22 22:01:00,76.0,69.4,30.01,SSW,212,3.0,7.0,80,0.00,,---,0.05,VWS V14.01,2013-06-23 02:01:00,
2013-06-22 22:16:00,75.4,69.2,30.01,SSW,211,3.0,5.0,81,0.00,,---,0.05,VWS V14.01,2013-06-23 02:16:00,
2013-06-22 22:31:00,74.8,68.2,30.02,SSW,205,3.0,6.0,80,0.00,,---,0.05,VWS V14.01,2013-06-23 02:31:00,
2013-06-22 22:46:00,74.6,67.3,30.02,SSW,207,4.0,6.0,78,0.00,,---,0.05,VWS V14.01,2013-06-23 02:46:00,
2013-06-22 23:01:00,74.0,67.1,30.03,SW,214,1.0,5.0,79,0.00,,---,0.05,VWS V14.01,2013-06-23 03:01:00,
2013-06-22 23:16:00,73.6,66.7,30.03,SW,215,2.0,5.0,79,0.00,,---,0.05,VWS V14.01,2013-06-23 03:16:00,
2013-06-22 23:31:00,73.2,65.9,30.04,SW,232,8.0,9.0,78,0.00,,---,0.05,VWS V14.01,2013-06-23 03:31:00,
2013-06-22 23:46:00,72.9,65.3,30.04,SW,216,3.0,9.0,77,0.00,,---,0.05,VWS V14.01,2013-06-23 03:46:00,